Voltar ao catálogo

THOR AGENA D R/B

AtivoLEO
NORAD 2825·ROCKET BODY·🇺🇸 United States

Lançado May 31, 1967 de Vandenberg Space Force Base

Loading…

Próximas Passagens (próximas 24 horas)

TLE

AtualizadoSource: Space-Track

Época: Sep 14, 2026, 23:08 UTC

1 02825U 67053B   26257.96422643  .00000003  00000-0  39576-4 0  9993
2 02825  69.9694 240.7978 0005119  35.5330 324.6116 13.97742515104646

Acompanhe THOR AGENA D R/B em tempo real com AllMySat

Download on the App Store